Regional Weather Roundup
Issued by NWS

Home | Current Version | Previous Version | Text Only | Print | Product List | Glossary On
Versions: 1 2 3 4 5 6 7 8 9 10 11 12 13 14 15 16 17 18 19 20 21 22 23 24 25 26 27 28 29 30 31 32 33 34 35 36 37 38 39 40 41 42 43 44 45 46 47 48 49 50
000
ASUS43 KMKX 250721
RWRWI

WISCONSIN REGIONAL WEATHER ROUNDUP
NATIONAL WEATHER SERVICE MILWAUKEE/SULLIVAN WI
200 AM CDT MON JUL 25 2016

NOTE: "FAIR" INDICATES FEW OR NO CLOUDS BELOW 12,000 FEET WITH NO
SIGNIFICANT WEATHER AND/OR OBSTRUCTIONS TO VISIBILITY.

WIZ001-002-006>008-014>016-023>028-250800-
NORTHWEST WISCONSIN

CITY           SKY/WX    TMP DP  RH WIND       PRES   REMARKS
SUPERIOR ARPT  PTCLDY    61  60  98 S6        29.91S
ASHLAND        CLEAR     66  60  81 SW8       29.91R
HAYWARD        CLEAR     61  58  90 S5        29.95R
SIREN          CLEAR     66  61  82 W3        29.96S
CUMBERLAND     CLEAR     63  59  88 W6        29.97S
RICE LAKE      CLEAR     65  60  85 CALM      29.98S
CHETEK         CLEAR     68  62  82 W3        29.96R
LADYSMITH      CLEAR     66  62  87 W5        29.97S
EAU CLAIRE     CLEAR     66  63  90 W3        29.96R
MENOMONIE      CLEAR     69  62  81 W6        29.97S
NEW RICHMOND   CLEAR     64  60  86 W3        29.99R
OSCEOLA        CLEAR     66  60  81 W5        30.00S
$$

WIZ003>005-009-010-017-018-250800-
NORTH CENTRAL WISCONSIN

CITY           SKY/WX    TMP DP  RH WIND       PRES   REMARKS
MANITOWISH WTR CLEAR     64  63  97 W5        29.93R
ARBOR VITAE    CLEAR     67  62  83 W5        29.93S
WOODRUFF       CLEAR     67  62  83 W5        29.93S
RHINELANDER    CLEAR     63  60  90 W6        29.94S
EAGLE RIVER    CLEAR     65  60  86 W6        29.92S
LAND O LAKES   CLEAR     65  60  83 W3        29.93R
PHILLIPS       CLEAR     63  61  94 CALM      29.94R
TOMAHAWK       CLEAR     61  58  91 W5        29.95R
MEDFORD        CLEAR     64  64 100 W7        29.97R
MERRILL        CLEAR     64  62  95 W5        29.95R
$$

WIZ029-030-035-036-043>047-250800-
CENTRAL WISCONSIN

CITY           SKY/WX    TMP DP  RH WIND       PRES   REMARKS
WAUSAU         CLEAR     67  62  84 NW3       29.94R
MOSINEE        CLEAR     63  61  94 W6        29.97R
MARSHFIELD     CLEAR     64  60  87 SW6       29.97R
STEVENS POINT  CLEAR     66  62  86 W3        29.97R
WAUPACA        PTCLDY    70  66  88 W6        29.95R
WAUTOMA        CLOUDY    67  65  93 W6        29.97R
WISC RAPIDS    CLEAR     66  61  84 W5        29.98R
CAMP DOUGLAS   PTCLDY    62  62  97 W5        29.98R
$$

WIZ011>013-019>022-031-037>040-048>050-250800-
NORTHEAST WISCONSIN

CITY           SKY/WX    TMP DP  RH WIND       PRES   REMARKS
ANTIGO         CLEAR     61  60  97 CALM      29.96R
SHAWANO        PTCLDY    69  64  82 W6        29.93R
OCONTO         MOCLDY    69  69 100 W5        29.89R
STURGEON BAY   CLOUDY    72  67  84 W6        29.90R
GREEN BAY      CLOUDY    69  67  93 W9        29.91R
MANITOWOC      PTCLDY    74  64  71 W8        29.91R
APPLETON       CLOUDY    68  61  77 W7        29.92S
CLINTONVILLE   PTCLDY    66  61  82 W3        29.93R
OSHKOSH        CLOUDY    72  64  76 W6        29.93R
$$

WIZ032>034-041-042-053>061-250800-
SOUTHWEST WISCONSIN

CITY           SKY/WX    TMP DP  RH WIND       PRES   REMARKS
LA CROSSE      CLEAR     71  65  81 CALM      29.98R
SPARTA         CLEAR     62  62  99 E5        30.00R
VIROQUA        CLEAR     66  65  97 SW5       30.03R
BOSCOBEL       CLOUDY    70  67  90 CALM      30.01R
PRAIRIE DU CHI CLOUDY    70  65  84 CALM      30.02R
PLATTEVILLE    CLOUDY    69  69 100 W5        30.01S
$$

WIZ056-057-062-063-064-067-068-250800-
SOUTH CENTRAL WISCONSIN

CITY           SKY/WX    TMP DP  RH WIND       PRES   REMARKS
REEDSBURG      CLOUDY    69  67  91 W5        29.99R
BARABOO/DELLS  CLOUDY    69  64  83 W6        29.98S
LONE ROCK      CLOUDY    71  67  87 W7        29.99S
MINERAL POINT  CLOUDY    70  68  94 NW3       30.00F
MADISON        CLOUDY    73  66  78 NW5       29.96R
MIDDLETON      CLOUDY    72  66  82 NW7       29.98S
WATERTOWN      CLOUDY    73  67  81 W5        29.95F
MONROE         CLOUDY    72  66  83 NW8       29.98S
JANESVILLE     CLOUDY    73  68  83 CALM      29.97R
$$

WIZ051-052-058>065-066-070>072-250800-
SOUTHEAST WISCONSIN

CITY           SKY/WX    TMP DP  RH WIND       PRES   REMARKS
MILWAUKEE      CLOUDY    80  65  59 NW6       29.95R HX  82
WAUKESHA       CLOUDY    72  63  73 NW8       29.96S
MILWAUKEE/TIMM CLOUDY    73  63  68 W7        29.95R
RACINE         CLOUDY    76  67  73 W6        29.96R
BURLINGTON     CLOUDY    72  69  89 SW3       29.97R
KENOSHA        CLOUDY    74  69  85 W6        29.96R
FOND DU LAC    CLOUDY    73  65  75 W7        29.94R
SHEBOYGAN      CLOUDY    74  64  71 W8        29.91S
WEST BEND      CLOUDY    73  63  68 NW3       29.95R
JUNEAU         CLOUDY    72  65  79 W3        29.97R
$$

LSZ147-162-250800-
LAKE SUPERIOR

STATION/POSITION TIME  TEMP    WIND        PRES    WAVE
                       AIR SEA DIR/SP/G            HT/PER
                 (UTC) (F)     (DEG/KT/KT) (MB)    (FT/S)
W MID LAKE BUOY  0650   64 59  250/ 14/ 16 1009.2R   2/ 4
DEVILS ISLAND    0700   65     240/ 14/ 16 1011.2R
SAXON HARBOR     0640   71     230/  6/ 12 1011.9R
$$

LMZ867-665-643>646-250800-
LAKE MICHIGAN

STATION/POSITION TIME  TEMP    WIND        PRES    WAVE
                       AIR SEA DIR/SP/G            HT/PER
                 (UTC) (F)     (DEG/KT/KT) (MB)    (FT/S)
CHAMBERS ISLAND  0600   71     250/  2/  4 1011.2R
N MID LAKE BUOY  0650   70 68  250/  4/  6 1009.9R   2/ 6
NORTHPORT PIER   0600   72     240/  4/  4 1010.8R
KEWAUNEE LAKESHO 0600   73     300/  5/  7 1011.1R
SHEBOYGAN LAKESH 0700   76     290/  8/ 10 1012.9R
PORT WASHINGTON  0640   77     300/  3/  6 1013.9R
MILWAUKEE LAKESH 0620   79     290/  7/  9   N/A
S MID LAKE BUOY  0650   74 73  230/  8/ 10 1012.6R   2/ 5
KENOSHA   LAKESH 0700   79     270/  7/  9 1013.5S
$$

TC  - TEMPERATURE IN CELSIUS
VSB - VISIBILITY IN STATUTE MILES
WCI - WIND CHILL INDEX
HX  - HEAT INDEX





USA.gov is the U.S. government's official web portal to all federal, state and local government web resources and services.